TimeCDT,TemperatureF,Dew PointF,Humidity,Sea Level PressureIn,VisibilityMPH,Wind Direction,Wind SpeedMPH,Gust SpeedMPH,PrecipitationIn,Events,Conditions,WindDirDegrees,DateUTC
12:17 AM,24.8,17.6,74,30.01,10.0,North,27.6,34.5,N/A,,Overcast,350,2013-03-10 06:17:00
12:53 AM,24.1,17.1,75,30.05,10.0,North,23.0,-,N/A,,Overcast,350,2013-03-10 06:53:00
1:33 AM,24.8,17.6,74,30.02,10.0,North,23.0,32.2,N/A,,Overcast,350,2013-03-10 07:33:00
1:53 AM,24.1,18.0,77,30.07,10.0,North,19.6,28.8,N/A,,Overcast,350,2013-03-10 07:53:00
3:53 AM,24.1,18.0,77,30.08,10.0,North,20.7,-,N/A,,Overcast,350,2013-03-10 08:53:00
4:17 AM,23.0,17.6,80,30.04,10.0,North,20.7,28.8,N/A,,Overcast,350,2013-03-10 09:17:00
4:46 AM,23.0,17.6,80,30.05,10.0,North,20.7,-,N/A,,Overcast,350,2013-03-10 09:46:00
4:53 AM,23.0,17.1,78,30.09,10.0,North,19.6,-,N/A,,Overcast,350,2013-03-10 09:53:00
5:53 AM,21.9,16.0,78,30.12,10.0,NNW,25.3,-,N/A,,Overcast,340,2013-03-10 10:53:00
6:05 AM,21.2,15.8,80,30.08,10.0,NNW,25.3,-,N/A,,Overcast,340,2013-03-10 11:05:00
6:53 AM,21.2,15.8,80,30.12,9.0,North,18.4,-,N/A,,Overcast,350,2013-03-10 11:53:00
7:42 AM,21.2,15.8,80,30.14,8.0,North,18.4,-,N/A,,Overcast,350,2013-03-10 12:42:00
7:53 AM,21.9,16.0,78,30.18,6.0,NNW,21.9,-,N/A,,Haze,340,2013-03-10 12:53:00
8:21 AM,21.2,15.8,80,30.14,1.8,NNW,25.3,34.5,0.00,Snow,Light Snow,340,2013-03-10 13:21:00
8:53 AM,19.9,15.1,81,30.19,2.0,NNW,24.2,-,0.00,Snow,Light Snow,340,2013-03-10 13:53:00
9:06 AM,19.4,15.8,86,30.15,4.0,NNW,23.0,-,0.00,Snow,Light Snow,340,2013-03-10 14:06:00
9:53 AM,19.9,15.1,81,30.20,5.0,NNW,25.3,-,0.00,,Haze,340,2013-03-10 14:53:00
10:53 AM,21.0,15.1,78,30.23,10.0,NNW,26.5,32.2,N/A,,Overcast,340,2013-03-10 15:53:00
11:15 AM,21.2,15.8,80,30.18,10.0,North,27.6,33.4,N/A,,Mostly Cloudy,350,2013-03-10 16:15:00
11:53 AM,21.0,15.1,78,30.21,8.0,NNW,26.5,-,0.00,,Mostly Cloudy,340,2013-03-10 16:53:00
12:53 PM,19.9,14.0,78,30.22,9.0,NNW,26.5,-,N/A,,Mostly Cloudy,340,2013-03-10 17:53:00
1:53 PM,21.0,15.1,78,30.23,10.0,NNW,19.6,-,N/A,,Overcast,340,2013-03-10 18:53:00
2:53 PM,21.9,15.1,75,30.22,10.0,North,13.8,-,N/A,,Mostly Cloudy,360,2013-03-10 19:53:00
3:29 PM,21.2,15.8,80,30.16,10.0,North,12.7,-,N/A,,Overcast,350,2013-03-10 20:29:00
3:53 PM,21.9,15.1,75,30.22,10.0,North,12.7,19.6,N/A,,Overcast,350,2013-03-10 20:53:00
4:27 PM,21.2,12.2,68,30.17,10.0,NNW,15.0,-,N/A,,Scattered Clouds,340,2013-03-10 21:27:00
4:53 PM,21.9,12.9,68,30.21,10.0,NNW,17.3,-,N/A,,Clear,330,2013-03-10 21:53:00
5:53 PM,19.9,12.0,71,30.19,10.0,NNW,19.6,-,N/A,,Clear,340,2013-03-10 22:53:00
6:53 PM,18.0,9.0,68,30.17,10.0,NNW,18.4,-,N/A,,Clear,340,2013-03-10 23:53:00
7:53 PM,15.1,7.0,70,30.19,10.0,North,15.0,-,N/A,,Clear,350,2013-03-11 00:53:00
8:53 PM,12.0,3.9,70,30.19,10.0,NNW,11.5,-,N/A,,Clear,340,2013-03-11 01:53:00
9:53 PM,10.0,1.9,70,30.17,10.0,NNW,10.4,-,N/A,,Clear,340,2013-03-11 02:53:00
10:53 PM,9.0,1.9,73,30.18,10.0,North,10.4,-,N/A,,Clear,350,2013-03-11 03:53:00
11:53 PM,5.0,-0.9,76,30.17,10.0,North,3.5,-,N/A,,Clear,360,2013-03-11 04:53:00
12:53 AM,3.9,-2.0,76,30.14,10.0,Calm,Calm,-,N/A,,Clear,0,2013-03-11 05:53:00